Regional Weather Roundup
Issued by NWS

Home | Current Version | Previous Version | Text Only | Print | Product List | Glossary Off
Versions: 1 2 3 4 5 6 7 8 9 10 11 12 13 14 15 16 17 18 19 20 21 22 23 24 25 26 27 28 29 30 31 32 33 34 35 36 37 38 39 40 41 42 43 44 45 46 47 48 49 50

000
ASUS43 KMKX 161921
RWRWI

WISCONSIN REGIONAL WEATHER ROUNDUP
NATIONAL WEATHER SERVICE MILWAUKEE/SULLIVAN WI
200 PM CDT WED AUG 16 2017

NOTE: "FAIR" INDICATES FEW OR NO CLOUDS BELOW 12,000 FEET WITH NO
SIGNIFICANT WEATHER AND/OR OBSTRUCTIONS TO VISIBILITY.

WIZ001-002-006>008-014>016-023>028-162000-
NORTHWEST WISCONSIN

CITY           SKY/WX    TMP DP  RH WIND       PRES   REMARKS
SUPERIOR ARPT  LGT RAIN  61  61  98 NE12      29.95F
ASHLAND        CLOUDY    67  62  84 NE10      29.97S
HAYWARD        CLOUDY    71  60  68 E9        29.94F
SIREN          CLOUDY    74  62  67 SE9       29.90S
CUMBERLAND     CLOUDY    73  63  68 E8        29.92S
RICE LAKE      CLOUDY    76  64  66 E13       29.92F
CHETEK         CLOUDY    77  66  68 SE12      29.91F
LADYSMITH      CLOUDY    77  62  59 SE9       29.96S
EAU CLAIRE     PTSUNNY   78  64  61 SE16      29.89F HX  80
MENOMONIE      PTSUNNY   76  65  68 E10       29.89F
NEW RICHMOND   CLOUDY    74  64  73 SE9       29.88F
OSCEOLA        CLOUDY    74  66  75 SE8       29.91S
$$

WIZ003>005-009-010-017-018-162000-
NORTH CENTRAL WISCONSIN

CITY           SKY/WX    TMP DP  RH WIND       PRES   REMARKS
MANITOWISH WTR PTSUNNY   72  58  60 E8        29.99F
ARBOR VITAE    MOSUNNY   74  58  56 SE7       29.99F
WOODRUFF       MOSUNNY   74  58  56 SE7       29.99F
RHINELANDER    MOSUNNY   75  59  57 SE10      30.01F
EAGLE RIVER    CLOUDY    73  54  52 SE7       30.01F
LAND O LAKES   MOSUNNY   74  53  46 SE6       30.02F
PHILLIPS       CLOUDY    73  61  65 SE9       29.96F
TOMAHAWK         N/A     73  60  62 SE3       29.99F
MEDFORD        CLOUDY    73  61  67 SE9       29.97F
MERRILL        SUNNY     73  61  64 SE12      29.99F
$$

WIZ029-030-035-036-043>047-162000-
CENTRAL WISCONSIN

CITY           SKY/WX    TMP DP  RH WIND       PRES   REMARKS
WAUSAU         PTSUNNY   75  60  59 SE12G18   29.97F
MOSINEE        MOSUNNY   75  64  69 E12       29.99F
MARSHFIELD     PTSUNNY   78  61  55 E9        29.96F HX  80
STEVENS POINT  MOSUNNY   74  60  60 E9G18     29.98F
WAUPACA        SUNNY     81  61  49 SE7       29.98F HX  82
WAUTOMA        SUNNY     79  63  57 E8        29.97F HX  80
WISC RAPIDS    SUNNY     80  63  55 SE10      29.97F HX  81
CAMP DOUGLAS   MOSUNNY   81  66  61 E13       29.92F HX  83
$$

WIZ011>013-019>022-031-037>040-048>050-162000-
NORTHEAST WISCONSIN

CITY           SKY/WX    TMP DP  RH WIND       PRES   REMARKS
ANTIGO         MOSUNNY   72  59  63 SE12      30.02F
SHAWANO        MOSUNNY   78  61  55 E9        29.99F
OCONTO         MOSUNNY   73  60  65 NE7       30.01F
STURGEON BAY   PTSUNNY   72  64  78 E7        30.02F
GREEN BAY      PTSUNNY   75  66  73 NE6       30.00F
MANITOWOC      SUNNY     73  63  70 E9        30.01F
APPLETON       MOSUNNY   77  55  47 SE9       29.98F
CLINTONVILLE   SUNNY     77  59  53 E6        29.98F
OSHKOSH        SUNNY     77  63  61 E10       29.97F
$$

WIZ032>034-041-042-053>061-162000-
SOUTHWEST WISCONSIN

CITY           SKY/WX    TMP DP  RH WIND       PRES   REMARKS
LA CROSSE      MOSUNNY   85  68  56 SE9       29.87F HX  88
SPARTA         CLOUDY    81  66  59 E10       29.91F HX  83
VIROQUA        MOSUNNY   80  70  72 SE15      29.91F HX  83
BOSCOBEL       PTSUNNY   85  69  58 E9        29.88F HX  89
PRAIRIE DU CHI CLOUDY    82  67  61 E10       29.86F HX  84
PLATTEVILLE    PTSUNNY   83  73  73 SE13      29.91F HX  88
$$

WIZ056-057-062-063-064-067-068-162000-
SOUTH CENTRAL WISCONSIN

CITY           SKY/WX    TMP DP  RH WIND       PRES   REMARKS
REEDSBURG      SUNNY     82  66  59 E7        29.92F HX  84
BARABOO/DELLS  SUNNY     82  63  53 SE10G16   29.93F HX  83
LONE ROCK      CLOUDY    82  70  66 E12       29.90F HX  86
MINERAL POINT  CLOUDY    82  72  69 SE12G17   29.92F HX  87
MADISON        MOSUNNY   82  68  62 SE12      29.93F HX  85
MIDDLETON      PTSUNNY   84  67  57 E9        29.94F HX  87
WATERTOWN      MOSUNNY   82  68  62 E10G16    29.95F HX  85
MONROE         PTSUNNY   81  68  65 SE10      29.93F HX  83
JANESVILLE     PTSUNNY   86  70  58 SE12G17   29.93F HX  90
$$

WIZ051-052-058>065-066-070>072-162000-
SOUTHEAST WISCONSIN

CITY           SKY/WX    TMP DP  RH WIND       PRES   REMARKS
MILWAUKEE      MOSUNNY   78  67  68 E9        29.99S HX  80
WAUKESHA       MOSUNNY   79  63  57 E10G17    29.99F HX  80
MILWAUKEE/TIMM SUNNY     77  61  57 E7        30.00F
RACINE         SUNNY     77  66  68 E10       30.00F
KENOSHA        SUNNY     79  67  66 E12       29.98F HX  81
FOND DU LAC    MOSUNNY   81  63  54 VRB5      29.97F HX  82
SHEBOYGAN      SUNNY     74  65  73 E9        30.00F
WEST BEND      SUNNY     77  63  61 E8        29.99S
JUNEAU         SUNNY     79  67  65 E8G16     29.97F HX  81
$$

LSZ147-162-162000-
LAKE SUPERIOR

STATION/POSITION TIME  TEMP    WIND        PRES    WAVE
                       AIR SEA DIR/SP/G            HT/PER
                 (UTC) (F)     (DEG/KT/KT) (MB)    (FT/S)
W MID LAKE BUOY  1850   62 61   60/ 12/ 14 1015.4F   1/ 3
DEVILS ISLAND    1900   62      60/ 14/ 16 1015.0F
SAXON HARBOR     1840   66      50/ 12/ 15 1014.2F
$$

LMZ867-665-643>646-162000-
LAKE MICHIGAN

STATION/POSITION TIME  TEMP    WIND        PRES    WAVE
                       AIR SEA DIR/SP/G            HT/PER
                 (UTC) (F)     (DEG/KT/KT) (MB)    (FT/S)
S GREEN BAY BUOY 1900   68 72   50/ 12/ 14 1016.1
N MID LAKE BUOY  1850   66 69   60/  6/  8 1017.2F   1
NORTHPORT PIER   1840   67      90/  7/  9 1016.6F
KEWAUNEE LAKESHO 1854   71      70/  4/  7 1015.9F
SHEBOYGAN LAKESH 1900   68      60/  6/  7 1015.6F
PORT WASHINGTON  1830   72      80/  7/  8 1016.6F
ATWATER BUOY     1809   70 72   60/  8/  8 1015.9F
MILWAUKEE LAKESH 1900   71      70/  8/  9   N/A
S MID LAKE BUOY  1850   72 73   60/  8/  8 1015.3F   1
KENOSHA   LAKESH 1900   72      70/  7/  8 1014.9
$$

TC  - TEMPERATURE IN CELSIUS
VSB - VISIBILITY IN STATUTE MILES
WCI - WIND CHILL INDEX
HX  - HEAT INDEX




USA.gov is the U.S. government's official web portal to all federal, state and local government web resources and services.